Time,TemperatureF,DewpointF,PressureIn,WindDirection,WindDirectionDegrees,WindSpeedMPH,WindSpeedGustMPH,Humidity,HourlyPrecipIn,Conditions,Clouds,dailyrainin,SoftwareType,DateUTC
2013-04-24 00:00:00,49.4,29.5,30.17,ENE,60,0.0,0.0,46,0.00,,CLR,0.00,VWS V14.01,2013-04-24 04:00:00,
2013-04-24 00:01:00,49.3,29.4,30.17,ENE,59,0.0,0.0,46,0.00,,CLR,0.00,VWS V14.01,2013-04-24 04:01:00,
2013-04-24 00:02:00,49.3,29.4,30.17,ENE,60,0.0,0.0,46,0.00,,CLR,0.00,VWS V14.01,2013-04-24 04:02:00,
2013-04-24 00:07:00,49.0,28.6,30.17,ENE,60,0.0,0.0,45,0.00,,CLR,0.00,VWS V14.01,2013-04-24 04:07:00,
2013-04-24 00:12:00,48.9,28.5,30.17,ENE,59,0.0,0.0,45,0.00,,CLR,0.00,VWS V14.01,2013-04-24 04:12:00,
2013-04-24 00:17:00,48.8,28.4,30.17,ENE,59,0.0,0.0,45,0.00,,CLR,0.00,VWS V14.01,2013-04-24 04:17:00,
2013-04-24 00:22:00,48.6,27.7,30.17,ENE,60,0.0,0.0,44,0.00,,CLR,0.00,VWS V14.01,2013-04-24 04:22:00,
2013-04-24 00:27:00,48.5,27.6,30.17,ENE,60,0.0,0.0,44,0.00,,CLR,0.00,VWS V14.01,2013-04-24 04:27:00,
2013-04-24 00:32:00,48.4,27.5,30.17,ENE,60,0.0,0.0,44,0.00,,CLR,0.00,VWS V14.01,2013-04-24 04:32:00,
2013-04-24 00:37:00,48.2,27.3,30.17,ENE,60,0.0,0.0,44,0.00,,CLR,0.00,VWS V14.01,2013-04-24 04:37:00,
2013-04-24 00:42:00,48.1,26.7,30.17,ENE,60,0.0,0.0,43,0.00,,CLR,0.00,VWS V14.01,2013-04-24 04:42:00,
2013-04-24 00:47:00,48.1,26.7,30.17,ENE,60,0.0,0.0,43,0.00,,CLR,0.00,VWS V14.01,2013-04-24 04:47:00,
2013-04-24 00:52:00,47.9,26.5,30.17,ENE,60,0.0,0.0,43,0.00,,CLR,0.00,VWS V14.01,2013-04-24 04:52:00,
2013-04-24 00:57:00,47.7,26.3,30.17,ENE,60,0.0,0.0,43,0.00,,CLR,0.00,VWS V14.01,2013-04-24 04:57:00,
2013-04-24 01:02:00,47.6,26.2,30.16,ENE,60,0.0,0.0,43,0.00,,CLR,0.00,VWS V14.01,2013-04-24 05:02:00,
2013-04-24 01:07:00,47.5,26.1,30.17,ENE,60,0.0,0.0,43,0.00,,CLR,0.00,VWS V14.01,2013-04-24 05:07:00,
2013-04-24 01:12:00,47.4,26.0,30.17,ENE,59,0.0,0.0,43,0.00,,CLR,0.00,VWS V14.01,2013-04-24 05:12:00,
2013-04-24 01:17:00,47.2,25.3,30.17,ENE,59,0.0,0.0,42,0.00,,CLR,0.00,VWS V14.01,2013-04-24 05:17:00,
2013-04-24 01:22:00,47.1,25.2,30.16,ENE,59,0.0,0.0,42,0.00,,CLR,0.00,VWS V14.01,2013-04-24 05:22:00,
2013-04-24 01:27:00,46.9,25.0,30.16,ENE,60,0.0,0.0,42,0.00,,CLR,0.00,VWS V14.01,2013-04-24 05:27:00,
2013-04-24 01:32:00,46.8,24.9,30.16,ENE,59,0.0,0.0,42,0.00,,CLR,0.00,VWS V14.01,2013-04-24 05:32:00,
2013-04-24 01:37:00,46.7,24.8,30.16,ENE,60,0.0,0.0,42,0.00,,CLR,0.00,VWS V14.01,2013-04-24 05:37:00,
2013-04-24 01:42:00,46.5,24.7,30.15,ENE,60,0.0,0.0,42,0.00,,CLR,0.00,VWS V14.01,2013-04-24 05:42:00,
2013-04-24 01:47:00,46.3,24.5,30.15,ENE,59,0.0,0.0,42,0.00,,CLR,0.00,VWS V14.01,2013-04-24 05:47:00,
2013-04-24 01:52:00,46.2,24.4,30.15,ENE,60,0.0,0.0,42,0.00,,CLR,0.00,VWS V14.01,2013-04-24 05:52:00,
2013-04-24 01:57:00,46.1,24.3,30.15,ENE,59,0.0,0.0,42,0.00,,CLR,0.00,VWS V14.01,2013-04-24 05:57:00,
2013-04-24 02:02:00,46.1,24.3,30.15,ENE,59,0.0,0.0,42,0.00,,CLR,0.00,VWS V14.01,2013-04-24 06:02:00,
2013-04-24 02:07:00,46.0,24.2,30.15,ENE,60,0.0,0.0,42,0.00,,CLR,0.00,VWS V14.01,2013-04-24 06:07:00,
2013-04-24 02:12:00,45.8,24.0,30.15,ENE,60,0.0,0.0,42,0.00,,CLR,0.00,VWS V14.01,2013-04-24 06:12:00,
2013-04-24 02:17:00,45.6,23.9,30.15,ENE,59,0.0,0.0,42,0.00,,CLR,0.00,VWS V14.01,2013-04-24 06:17:00,
2013-04-24 02:22:00,45.4,23.7,30.14,ENE,59,0.0,0.0,42,0.00,,CLR,0.00,VWS V14.01,2013-04-24 06:22:00,
2013-04-24 02:27:00,45.3,23.6,30.14,ENE,60,0.0,0.0,42,0.00,,CLR,0.00,VWS V14.01,2013-04-24 06:27:00,
2013-04-24 02:32:00,45.4,23.7,30.14,ENE,60,0.0,0.0,42,0.00,,CLR,0.00,VWS V14.01,2013-04-24 06:32:00,
2013-04-24 02:37:00,45.3,23.6,30.14,ENE,59,0.0,0.0,42,0.00,,CLR,0.00,VWS V14.01,2013-04-24 06:37:00,
2013-04-24 02:42:00,45.1,23.4,30.14,ENE,59,0.0,0.0,42,0.00,,CLR,0.00,VWS V14.01,2013-04-24 06:42:00,
2013-04-24 02:47:00,44.9,23.2,30.14,ENE,59,0.0,0.0,42,0.00,,CLR,0.00,VWS V14.01,2013-04-24 06:47:00,
2013-04-24 02:52:00,44.8,23.1,30.14,ENE,59,0.0,0.0,42,0.00,,CLR,0.00,VWS V14.01,2013-04-24 06:52:00,
2013-04-24 02:57:00,44.8,23.1,30.14,ENE,60,0.0,0.0,42,0.00,,CLR,0.00,VWS V14.01,2013-04-24 06:57:00,
2013-04-24 03:02:00,44.8,23.1,30.14,ENE,60,0.0,0.0,42,0.00,,CLR,0.00,VWS V14.01,2013-04-24 07:02:00,
2013-04-24 03:07:00,44.6,22.9,30.14,ENE,60,0.0,0.0,42,0.00,,CLR,0.00,VWS V14.01,2013-04-24 07:07:00,
2013-04-24 03:12:00,44.5,22.9,30.14,ENE,60,0.0,0.0,42,0.00,,CLR,0.00,VWS V14.01,2013-04-24 07:12:00,
2013-04-24 03:17:00,44.3,22.7,30.14,ENE,60,0.0,0.0,42,0.00,,CLR,0.00,VWS V14.01,2013-04-24 07:17:00,
2013-04-24 03:22:00,44.3,22.7,30.14,ENE,60,0.0,0.0,42,0.00,,CLR,0.00,VWS V14.01,2013-04-24 07:22:00,
2013-04-24 03:27:00,44.2,22.6,30.14,ENE,60,0.0,0.0,42,0.00,,CLR,0.00,VWS V14.01,2013-04-24 07:27:00,
2013-04-24 03:32:00,44.1,22.5,30.14,ENE,60,0.0,0.0,42,0.00,,CLR,0.00,VWS V14.01,2013-04-24 07:32:00,
2013-04-24 03:37:00,44.1,22.5,30.14,ENE,60,0.0,0.0,42,0.00,,CLR,0.00,VWS V14.01,2013-04-24 07:37:00,
2013-04-24 03:43:00,44.1,22.5,30.14,ENE,59,0.0,0.0,42,0.00,,CLR,0.00,VWS V14.01,2013-04-24 07:43:00,
2013-04-24 03:48:00,44.0,22.4,30.14,ENE,59,0.0,0.0,42,0.00,,CLR,0.00,VWS V14.01,2013-04-24 07:48:00,
2013-04-24 03:53:00,43.9,22.3,30.14,ENE,60,0.0,0.0,42,0.00,,CLR,0.00,VWS V14.01,2013-04-24 07:53:00,
2013-04-24 03:58:00,43.9,22.3,30.14,ENE,60,0.0,0.0,42,0.00,,CLR,0.00,VWS V14.01,2013-04-24 07:58:00,
2013-04-24 04:03:00,43.7,22.1,30.14,ENE,59,0.0,0.0,42,0.00,,CLR,0.00,VWS V14.01,2013-04-24 08:03:00,
2013-04-24 04:07:00,43.6,22.0,30.14,ENE,60,0.0,0.0,42,0.00,,CLR,0.00,VWS V14.01,2013-04-24 08:07:00,
2013-04-24 04:12:00,43.5,22.0,30.14,ENE,60,0.0,0.0,42,0.00,,CLR,0.00,VWS V14.01,2013-04-24 08:12:00,
2013-04-24 04:17:00,43.3,21.8,30.14,ENE,60,0.0,0.0,42,0.00,,CLR,0.00,VWS V14.01,2013-04-24 08:17:00,
2013-04-24 04:23:00,43.2,21.7,30.14,ENE,60,0.0,0.0,42,0.00,,CLR,0.00,VWS V14.01,2013-04-24 08:23:00,
2013-04-24 04:28:00,43.2,21.7,30.14,ENE,60,0.0,0.0,42,0.00,,CLR,0.00,VWS V14.01,2013-04-24 08:28:00,
2013-04-24 04:33:00,43.1,21.6,30.14,ENE,59,0.0,0.0,42,0.00,,CLR,0.00,VWS V14.01,2013-04-24 08:33:00,
2013-04-24 04:38:00,43.0,21.5,30.14,ENE,60,0.0,0.0,42,0.00,,CLR,0.00,VWS V14.01,2013-04-24 08:38:00,
2013-04-24 04:43:00,42.9,21.4,30.14,ENE,60,0.0,0.0,42,0.00,,CLR,0.00,VWS V14.01,2013-04-24 08:43:00,
2013-04-24 04:48:00,42.9,21.4,30.14,ENE,60,0.0,0.0,42,0.00,,CLR,0.00,VWS V14.01,2013-04-24 08:48:00,
2013-04-24 04:53:00,42.8,21.3,30.14,ENE,60,0.0,0.0,42,0.00,,CLR,0.00,VWS V14.01,2013-04-24 08:53:00,
2013-04-24 04:57:00,42.6,21.1,30.14,ENE,60,0.0,0.0,42,0.00,,CLR,0.00,VWS V14.01,2013-04-24 08:57:00,
2013-04-24 05:03:00,42.5,21.0,30.14,ENE,59,0.0,0.0,42,0.00,,CLR,0.00,VWS V14.01,2013-04-24 09:03:00,
2013-04-24 05:08:00,42.5,21.0,30.13,ENE,60,0.0,0.0,42,0.00,,CLR,0.00,VWS V14.01,2013-04-24 09:08:00,
2013-04-24 05:12:00,42.4,21.0,30.13,ENE,60,0.0,0.0,42,0.00,,CLR,0.00,VWS V14.01,2013-04-24 09:12:00,
2013-04-24 05:18:00,42.2,20.8,30.13,ENE,60,0.0,0.0,42,0.00,,CLR,0.00,VWS V14.01,2013-04-24 09:18:00,
2013-04-24 05:23:00,42.1,20.7,30.13,ENE,60,0.0,0.0,42,0.00,,CLR,0.00,VWS V14.01,2013-04-24 09:23:00,
2013-04-24 05:28:00,42.1,20.7,30.13,ENE,59,0.0,0.0,42,0.00,,CLR,0.00,VWS V14.01,2013-04-24 09:28:00,
2013-04-24 05:33:00,42.0,20.6,30.13,ENE,60,0.0,0.0,42,0.00,,CLR,0.00,VWS V14.01,2013-04-24 09:33:00,
2013-04-24 05:38:00,41.9,20.5,30.13,ENE,60,0.0,0.0,42,0.00,,CLR,0.00,VWS V14.01,2013-04-24 09:38:00,
2013-04-24 05:43:00,41.7,20.3,30.13,ENE,60,0.0,0.0,42,0.00,,CLR,0.00,VWS V14.01,2013-04-24 09:43:00,
2013-04-24 05:48:00,41.7,20.3,30.14,ENE,60,0.0,0.0,42,0.00,,CLR,0.00,VWS V14.01,2013-04-24 09:48:00,
2013-04-24 05:52:00,41.7,20.3,30.14,ENE,60,0.0,0.0,42,0.00,,CLR,0.00,VWS V14.01,2013-04-24 09:52:00,
2013-04-24 05:58:00,41.6,20.2,30.14,ENE,60,0.0,0.0,42,0.00,,CLR,0.00,VWS V14.01,2013-04-24 09:58:00,
2013-04-24 06:03:00,41.6,20.2,30.14,ENE,60,0.0,0.0,42,0.00,,CLR,0.00,VWS V14.01,2013-04-24 10:03:00,
2013-04-24 06:07:00,41.5,20.1,30.14,ENE,59,0.0,0.0,42,0.00,,CLR,0.00,VWS V14.01,2013-04-24 10:07:00,
2013-04-24 06:13:00,41.6,20.2,30.14,ENE,60,0.0,0.0,42,0.00,,CLR,0.00,VWS V14.01,2013-04-24 10:13:00,
2013-04-24 06:18:00,41.6,20.2,30.14,ENE,60,0.0,0.0,42,0.00,,CLR,0.00,VWS V14.01,2013-04-24 10:18:00,
2013-04-24 06:23:00,41.6,20.2,30.13,ENE,60,0.0,0.0,42,0.00,,CLR,0.00,VWS V14.01,2013-04-24 10:23:00,
2013-04-24 06:28:00,41.5,20.1,30.13,ENE,60,0.0,0.0,42,0.00,,CLR,0.00,VWS V14.01,2013-04-24 10:28:00,
2013-04-24 06:33:00,41.4,20.0,30.13,ENE,60,0.0,0.0,42,0.00,,CLR,0.00,VWS V14.01,2013-04-24 10:33:00,
2013-04-24 06:38:00,41.5,20.1,30.14,ENE,60,0.0,0.0,42,0.00,,CLR,0.00,VWS V14.01,2013-04-24 10:38:00,
2013-04-24 06:43:00,41.4,20.0,30.13,ENE,60,0.0,0.0,42,0.00,,CLR,0.00,VWS V14.01,2013-04-24 10:43:00,
2013-04-24 06:48:00,41.3,20.5,30.13,ENE,60,0.0,0.0,43,0.00,,CLR,0.00,VWS V14.01,2013-04-24 10:48:00,
2013-04-24 06:53:00,41.1,20.3,30.14,ENE,59,0.0,0.0,43,0.00,,CLR,0.00,VWS V14.01,2013-04-24 10:53:00,
2013-04-24 06:58:00,41.1,20.3,30.13,ENE,60,0.0,0.0,43,0.00,,CLR,0.00,VWS V14.01,2013-04-24 10:58:00,
2013-04-24 07:03:00,41.2,20.4,30.14,ENE,60,0.0,0.0,43,0.00,,,0.00,VWS V14.01,2013-04-24 11:03:00,
2013-04-24 07:08:00,41.2,20.4,30.13,ENE,59,0.0,0.0,43,0.00,,,0.00,VWS V14.01,2013-04-24 11:08:00,
2013-04-24 07:13:00,41.2,20.4,30.14,ENE,59,0.0,0.0,43,0.00,,,0.00,VWS V14.01,2013-04-24 11:13:00,
2013-04-24 07:18:00,41.2,20.4,30.14,ENE,59,0.0,0.0,43,0.00,,,0.00,VWS V14.01,2013-04-24 11:18:00,
2013-04-24 07:23:00,41.3,20.0,30.14,ENE,60,0.0,0.0,42,0.00,,,0.00,VWS V14.01,2013-04-24 11:23:00,
2013-04-24 07:28:00,41.5,20.1,30.14,ENE,59,0.0,0.0,42,0.00,,,0.00,VWS V14.01,2013-04-24 11:28:00,
2013-04-24 07:33:00,41.7,20.3,30.15,ENE,59,0.0,0.0,42,0.00,,,0.00,VWS V14.01,2013-04-24 11:33:00,
2013-04-24 07:38:00,42.1,20.7,30.15,ENE,60,0.0,0.0,42,0.00,,,0.00,VWS V14.01,2013-04-24 11:38:00,
2013-04-24 07:43:00,42.8,21.3,30.15,ENE,59,0.0,0.0,42,0.00,,,0.00,VWS V14.01,2013-04-24 11:43:00,
2013-04-24 07:48:00,43.1,21.6,30.15,ENE,60,0.0,0.0,42,0.00,,,0.00,VWS V14.01,2013-04-24 11:48:00,
2013-04-24 07:53:00,43.5,21.4,30.15,ENE,60,0.0,0.0,41,0.00,,,0.00,VWS V14.01,2013-04-24 11:53:00,
2013-04-24 07:58:00,44.0,21.8,30.15,ENE,59,0.0,0.0,41,0.00,,,0.00,VWS V14.01,2013-04-24 11:58:00,
2013-04-24 08:03:00,44.4,22.2,30.15,ENE,60,0.0,0.0,41,0.00,,CLR,0.00,VWS V14.01,2013-04-24 12:03:00,
2013-04-24 08:08:00,44.9,22.6,30.15,ENE,60,0.0,0.0,41,0.00,,CLR,0.00,VWS V14.01,2013-04-24 12:08:00,
2013-04-24 08:13:00,45.6,23.3,30.15,ENE,60,0.0,1.0,41,0.00,,CLR,0.00,VWS V14.01,2013-04-24 12:13:00,
2013-04-24 08:18:00,46.3,23.3,30.14,ENE,59,0.0,0.0,40,0.00,,CLR,0.00,VWS V14.01,2013-04-24 12:18:00,
2013-04-24 08:23:00,46.9,23.9,30.14,ENE,60,0.0,0.0,40,0.00,,CLR,0.00,VWS V14.01,2013-04-24 12:23:00,
2013-04-24 08:28:00,47.6,24.5,30.14,ENE,60,0.0,0.0,40,0.00,,CLR,0.00,VWS V14.01,2013-04-24 12:28:00,
2013-04-24 08:33:00,48.3,24.5,30.14,ENE,59,0.0,0.0,39,0.00,,CLR,0.00,VWS V14.01,2013-04-24 12:33:00,
2013-04-24 08:38:00,49.3,25.4,30.14,South,186,0.0,0.0,39,0.00,,CLR,0.00,VWS V14.01,2013-04-24 12:38:00,
2013-04-24 08:43:00,50.1,25.5,30.13,SSE,153,0.0,0.0,38,0.00,,CLR,0.00,VWS V14.01,2013-04-24 12:43:00,
2013-04-24 08:48:00,50.9,26.2,30.13,SSE,153,0.0,0.0,38,0.00,,CLR,0.00,VWS V14.01,2013-04-24 12:48:00,
2013-04-24 08:53:00,51.8,27.0,30.13,SSE,153,0.0,0.0,38,0.00,,CLR,0.00,VWS V14.01,2013-04-24 12:53:00,
2013-04-24 08:58:00,52.5,27.0,30.13,ENE,70,0.0,0.0,37,0.00,,CLR,0.00,VWS V14.01,2013-04-24 12:58:00,
2013-04-24 09:03:00,53.2,27.6,30.13,SE,145,0.0,0.0,37,0.00,,CLR,0.00,VWS V14.01,2013-04-24 13:03:00,
2013-04-24 09:08:00,53.9,27.6,30.13,SE,136,1.0,1.0,36,0.00,,CLR,0.00,VWS V14.01,2013-04-24 13:08:00,
2013-04-24 09:13:00,54.8,28.4,30.13,SSW,195,1.0,1.0,36,0.00,,CLR,0.00,VWS V14.01,2013-04-24 13:13:00,
2013-04-24 09:18:00,55.6,29.1,30.13,SSE,155,0.0,1.0,36,0.00,,CLR,0.00,VWS V14.01,2013-04-24 13:18:00,
2013-04-24 09:23:00,56.5,29.9,30.13,SSE,165,1.0,2.0,36,0.00,,CLR,0.00,VWS V14.01,2013-04-24 13:23:00,
2013-04-24 09:28:00,57.2,31.2,30.13,SE,146,1.0,1.0,37,0.00,,CLR,0.00,VWS V14.01,2013-04-24 13:28:00,
2013-04-24 09:33:00,58.1,33.3,30.13,SE,131,1.0,1.0,39,0.00,,CLR,0.00,VWS V14.01,2013-04-24 13:33:00,
2013-04-24 09:38:00,58.8,37.0,30.12,SW,226,1.0,1.0,44,0.00,,CLR,0.00,VWS V14.01,2013-04-24 13:38:00,
2013-04-24 09:43:00,59.5,40.9,30.12,SSE,162,1.0,2.0,50,0.00,,CLR,0.00,VWS V14.01,2013-04-24 13:43:00,
2013-04-24 09:48:00,60.0,44.7,30.12,ESE,103,1.0,2.0,57,0.00,,CLR,0.00,VWS V14.01,2013-04-24 13:48:00,
2013-04-24 09:53:00,60.6,46.2,30.12,South,172,3.0,3.0,59,0.00,,CLR,0.00,VWS V14.01,2013-04-24 13:53:00,
2013-04-24 09:58:00,60.9,46.9,30.12,WSW,239,3.0,3.0,60,0.00,,CLR,0.00,VWS V14.01,2013-04-24 13:58:00,
2013-04-24 10:03:00,61.4,47.4,30.11,SSW,212,1.0,2.0,60,0.00,,CLR,0.00,VWS V14.01,2013-04-24 14:03:00,
2013-04-24 10:08:00,62.4,48.8,30.11,South,170,2.0,5.0,61,0.00,,CLR,0.00,VWS V14.01,2013-04-24 14:08:00,
2013-04-24 10:13:00,62.8,49.6,30.11,ESE,107,0.0,1.0,62,0.00,,CLR,0.00,VWS V14.01,2013-04-24 14:13:00,
2013-04-24 10:18:00,63.3,50.5,30.11,SSE,149,4.0,5.0,63,0.00,,CLR,0.00,VWS V14.01,2013-04-24 14:18:00,
2013-04-24 10:23:00,63.5,50.7,30.11,SW,225,3.0,5.0,63,0.00,,CLR,0.00,VWS V14.01,2013-04-24 14:23:00,
2013-04-24 10:28:00,63.3,50.5,30.11,South,187,2.0,6.0,63,0.00,,CLR,0.00,VWS V14.01,2013-04-24 14:28:00,
2013-04-24 10:33:00,63.3,50.5,30.10,SSE,155,2.0,5.0,63,0.00,,CLR,0.00,VWS V14.01,2013-04-24 14:33:00,
2013-04-24 10:38:00,63.1,50.3,30.11,South,191,1.0,3.0,63,0.00,,CLR,0.00,VWS V14.01,2013-04-24 14:38:00,
2013-04-24 10:43:00,63.1,50.3,30.11,SE,146,1.0,4.0,63,0.00,,CLR,0.00,VWS V14.01,2013-04-24 14:43:00,
2013-04-24 10:48:00,63.9,51.1,30.10,East,100,4.0,6.0,63,0.00,,CLR,0.00,VWS V14.01,2013-04-24 14:48:00,
2013-04-24 10:53:00,64.1,51.3,30.10,WSW,240,2.0,4.0,63,0.00,,CLR,0.00,VWS V14.01,2013-04-24 14:53:00,
2013-04-24 10:58:00,64.6,51.7,30.09,ESE,117,3.0,4.0,63,0.00,,CLR,0.00,VWS V14.01,2013-04-24 14:58:00,
2013-04-24 11:03:00,65.3,52.4,30.09,SSE,167,2.0,8.0,63,0.00,,CLR,0.00,VWS V14.01,2013-04-24 15:03:00,
2013-04-24 11:09:00,65.6,52.7,30.09,SSE,155,3.0,4.0,63,0.00,,CLR,0.00,VWS V14.01,2013-04-24 15:09:00,
2013-04-24 11:14:00,65.8,52.9,30.09,ESE,104,7.0,7.0,63,0.00,,CLR,0.00,VWS V14.01,2013-04-24 15:14:00,
2013-04-24 11:19:00,66.3,53.3,30.09,SE,132,6.0,6.0,63,0.00,,CLR,0.00,VWS V14.01,2013-04-24 15:19:00,
2013-04-24 11:24:00,66.8,53.8,30.09,South,188,3.0,6.0,63,0.00,,CLR,0.00,VWS V14.01,2013-04-24 15:24:00,
2013-04-24 11:29:00,66.4,53.4,30.09,SSW,194,4.0,6.0,63,0.00,,CLR,0.00,VWS V14.01,2013-04-24 15:29:00,
2013-04-24 11:34:00,65.5,52.6,30.09,ENE,65,2.0,6.0,63,0.00,,CLR,0.00,VWS V14.01,2013-04-24 15:34:00,
2013-04-24 11:39:00,65.2,52.3,30.09,SE,124,2.0,8.0,63,0.00,,CLR,0.00,VWS V14.01,2013-04-24 15:39:00,
2013-04-24 11:44:00,65.8,52.9,30.09,SW,214,6.0,9.0,63,0.00,,CLR,0.00,VWS V14.01,2013-04-24 15:44:00,
2013-04-24 11:49:00,66.4,53.4,30.09,WSW,242,3.0,3.0,63,0.00,,CLR,0.00,VWS V14.01,2013-04-24 15:49:00,
2013-04-24 11:54:00,66.6,53.6,30.09,WSW,257,4.0,9.0,63,0.00,,CLR,0.00,VWS V14.01,2013-04-24 15:54:00,
2013-04-24 11:59:00,67.1,54.1,30.09,SSE,148,6.0,8.0,63,0.00,,CLR,0.00,VWS V14.01,2013-04-24 15:59:00,
2013-04-24 12:04:00,67.2,54.2,30.09,SSE,158,6.0,9.0,63,0.00,,CLR,0.00,VWS V14.01,2013-04-24 16:04:00,
2013-04-24 12:09:00,67.5,54.0,30.09,SSW,195,4.0,5.0,62,0.00,,CLR,0.00,VWS V14.01,2013-04-24 16:09:00,
2013-04-24 12:14:00,67.9,54.4,30.09,SE,128,4.0,7.0,62,0.00,,CLR,0.00,VWS V14.01,2013-04-24 16:14:00,
2013-04-24 12:19:00,68.3,54.8,30.09,SSE,158,4.0,7.0,62,0.00,,CLR,0.00,VWS V14.01,2013-04-24 16:19:00,
2013-04-24 12:24:00,68.6,55.1,30.09,SSW,198,1.0,5.0,62,0.00,,CLR,0.00,VWS V14.01,2013-04-24 16:24:00,
2013-04-24 12:29:00,69.2,55.2,30.09,SSE,160,5.0,8.0,61,0.00,,CLR,0.00,VWS V14.01,2013-04-24 16:29:00,
2013-04-24 12:34:00,69.5,55.5,30.08,WNW,291,4.0,10.0,61,0.00,,CLR,0.00,VWS V14.01,2013-04-24 16:34:00,
2013-04-24 12:39:00,69.5,55.0,30.08,SW,226,4.0,12.0,60,0.00,,CLR,0.00,VWS V14.01,2013-04-24 16:39:00,
2013-04-24 12:44:00,69.9,55.4,30.08,ENE,77,8.0,8.0,60,0.00,,CLR,0.00,VWS V14.01,2013-04-24 16:44:00,
2013-04-24 12:49:00,70.3,55.8,30.08,South,184,6.0,10.0,60,0.00,,CLR,0.00,VWS V14.01,2013-04-24 16:49:00,
2013-04-24 12:54:00,70.5,56.0,30.08,SE,139,4.0,7.0,60,0.00,,CLR,0.00,VWS V14.01,2013-04-24 16:54:00,
2013-04-24 12:59:00,70.1,56.0,30.08,SSE,153,1.0,6.0,61,0.00,,CLR,0.00,VWS V14.01,2013-04-24 16:59:00,
2013-04-24 13:04:00,70.5,56.4,30.08,South,176,4.0,4.0,61,0.00,,CLR,0.00,VWS V14.01,2013-04-24 17:04:00,
2013-04-24 13:09:00,70.7,56.2,30.07,WSW,256,1.0,3.0,60,0.00,,CLR,0.00,VWS V14.01,2013-04-24 17:09:00,
2013-04-24 13:14:00,71.9,55.9,30.07,SSE,153,1.0,6.0,57,0.00,,CLR,0.00,VWS V14.01,2013-04-24 17:14:00,
2013-04-24 13:19:00,72.5,56.4,30.07,WSW,252,3.0,4.0,57,0.00,,CLR,0.00,VWS V14.01,2013-04-24 17:19:00,
2013-04-24 13:24:00,72.6,55.5,30.07,West,262,4.0,11.0,55,0.00,,CLR,0.00,VWS V14.01,2013-04-24 17:24:00,
2013-04-24 13:29:00,72.8,55.7,30.07,WSW,256,4.0,5.0,55,0.00,,CLR,0.00,VWS V14.01,2013-04-24 17:29:00,
2013-04-24 13:34:00,72.7,56.1,30.07,ESE,122,1.0,6.0,56,0.00,,CLR,0.00,VWS V14.01,2013-04-24 17:34:00,
2013-04-24 13:39:00,72.5,55.9,30.07,South,170,3.0,5.0,56,0.00,,CLR,0.00,VWS V14.01,2013-04-24 17:39:00,
2013-04-24 13:44:00,72.3,55.2,30.06,SSW,200,7.0,14.0,55,0.00,,CLR,0.00,VWS V14.01,2013-04-24 17:44:00,
2013-04-24 13:49:00,72.6,56.0,30.06,ESE,111,4.0,8.0,56,0.00,,CLR,0.00,VWS V14.01,2013-04-24 17:49:00,
2013-04-24 13:54:00,72.4,55.3,30.06,South,172,4.0,9.0,55,0.00,,CLR,0.00,VWS V14.01,2013-04-24 17:54:00,
2013-04-24 13:59:00,72.3,55.7,30.06,WSW,239,2.0,4.0,56,0.00,,CLR,0.00,VWS V14.01,2013-04-24 17:59:00,
2013-04-24 14:05:00,72.5,55.9,30.06,ESE,104,9.0,11.0,56,0.00,,SCT049,0.00,VWS V14.01,2013-04-24 18:05:00,
2013-04-24 14:10:00,72.0,55.0,30.06,SSE,149,7.0,7.0,55,0.00,,SCT049,0.00,VWS V14.01,2013-04-24 18:10:00,
2013-04-24 14:14:00,72.1,55.1,30.06,ESE,118,11.0,11.0,55,0.00,,SCT049,0.00,VWS V14.01,2013-04-24 18:14:00,
2013-04-24 14:19:00,72.7,55.6,30.06,SW,218,9.0,10.0,55,0.00,,SCT049,0.00,VWS V14.01,2013-04-24 18:19:00,
2013-04-24 14:25:00,73.3,55.7,30.05,East,92,1.0,5.0,54,0.00,,SCT049,0.00,VWS V14.01,2013-04-24 18:25:00,
2013-04-24 14:30:00,74.0,56.8,30.05,SSW,210,4.0,4.0,55,0.00,,SCT049,0.00,VWS V14.01,2013-04-24 18:30:00,
2013-04-24 14:34:00,73.9,56.7,30.05,SW,229,2.0,7.0,55,0.00,,SCT049,0.00,VWS V14.01,2013-04-24 18:34:00,
2013-04-24 14:40:00,74.0,55.8,30.06,South,169,8.0,14.0,53,0.00,,SCT049,0.00,VWS V14.01,2013-04-24 18:40:00,
2013-04-24 14:45:00,73.6,56.0,30.05,SE,127,6.0,11.0,54,0.00,,SCT049,0.00,VWS V14.01,2013-04-24 18:45:00,
2013-04-24 14:50:00,73.4,55.2,30.05,SSE,165,4.0,10.0,53,0.00,,SCT049,0.00,VWS V14.01,2013-04-24 18:50:00,
2013-04-24 14:55:00,73.2,55.6,30.05,ESE,114,6.0,6.0,54,0.00,,SCT049,0.00,VWS V14.01,2013-04-24 18:55:00,
2013-04-24 15:00:00,73.3,55.7,30.05,East,97,1.0,1.0,54,0.00,,SCT049,0.00,VWS V14.01,2013-04-24 19:00:00,
2013-04-24 15:05:00,73.3,55.2,30.05,WSW,257,4.0,4.0,53,0.00,,CLR,0.00,VWS V14.01,2013-04-24 19:05:00,
2013-04-24 15:10:00,73.2,55.6,30.03,ESE,115,4.0,4.0,54,0.00,,CLR,0.00,VWS V14.01,2013-04-24 19:10:00,
2013-04-24 15:15:00,73.4,56.3,30.03,SW,229,7.0,7.0,55,0.00,,CLR,0.00,VWS V14.01,2013-04-24 19:15:00,
2013-04-24 15:20:00,73.3,56.2,30.03,WSW,249,2.0,3.0,55,0.00,,CLR,0.00,VWS V14.01,2013-04-24 19:20:00,
2013-04-24 15:25:00,73.1,55.5,30.03,SSW,195,7.0,11.0,54,0.00,,CLR,0.00,VWS V14.01,2013-04-24 19:25:00,
2013-04-24 15:30:00,73.0,54.9,30.03,SSE,168,6.0,6.0,53,0.00,,CLR,0.00,VWS V14.01,2013-04-24 19:30:00,
2013-04-24 15:35:00,72.9,55.3,30.02,WSW,255,5.0,5.0,54,0.00,,CLR,0.00,VWS V14.01,2013-04-24 19:35:00,
2013-04-24 15:40:00,72.6,55.0,30.02,East,99,12.0,12.0,54,0.00,,CLR,0.00,VWS V14.01,2013-04-24 19:40:00,
2013-04-24 15:45:00,72.2,54.7,30.02,SSW,202,3.0,4.0,54,0.00,,CLR,0.00,VWS V14.01,2013-04-24 19:45:00,
2013-04-24 15:50:00,72.1,55.1,30.02,SSW,193,9.0,9.0,55,0.00,,CLR,0.00,VWS V14.01,2013-04-24 19:50:00,
2013-04-24 15:55:00,71.8,54.8,30.02,SE,136,4.0,10.0,55,0.00,,CLR,0.00,VWS V14.01,2013-04-24 19:55:00,
2013-04-24 16:00:00,71.7,54.7,30.02,SSE,165,6.0,6.0,55,0.00,,CLR,0.00,VWS V14.01,2013-04-24 20:00:00,
2013-04-24 16:05:00,71.8,54.8,30.02,South,191,6.0,11.0,55,0.00,,CLR,0.00,VWS V14.01,2013-04-24 20:05:00,
2013-04-24 16:10:00,71.9,55.4,30.01,SSE,149,5.0,6.0,56,0.00,,CLR,0.00,VWS V14.01,2013-04-24 20:10:00,
2013-04-24 16:15:00,72.1,55.6,30.01,SW,221,4.0,4.0,56,0.00,,CLR,0.00,VWS V14.01,2013-04-24 20:15:00,
2013-04-24 16:20:00,72.3,55.7,30.02,South,180,2.0,2.0,56,0.00,,CLR,0.00,VWS V14.01,2013-04-24 20:20:00,
2013-04-24 16:25:00,72.5,55.4,30.01,South,169,4.0,4.0,55,0.00,,CLR,0.00,VWS V14.01,2013-04-24 20:25:00,
2013-04-24 16:30:00,72.6,55.5,30.00,SSW,195,3.0,4.0,55,0.00,,CLR,0.00,VWS V14.01,2013-04-24 20:30:00,
2013-04-24 16:35:00,72.6,55.5,30.01,SSW,210,4.0,5.0,55,0.00,,CLR,0.00,VWS V14.01,2013-04-24 20:35:00,
2013-04-24 16:40:00,72.3,55.2,30.00,ESE,104,11.0,11.0,55,0.00,,CLR,0.00,VWS V14.01,2013-04-24 20:40:00,
2013-04-24 16:45:00,72.2,55.7,30.00,SSW,210,1.0,3.0,56,0.00,,CLR,0.00,VWS V14.01,2013-04-24 20:45:00,
2013-04-24 16:50:00,72.7,56.6,30.00,WSW,250,5.0,6.0,57,0.00,,CLR,0.00,VWS V14.01,2013-04-24 20:50:00,
2013-04-24 16:55:00,72.7,56.1,30.00,SW,226,5.0,5.0,56,0.00,,CLR,0.00,VWS V14.01,2013-04-24 20:55:00,
2013-04-24 17:00:00,72.3,55.7,30.01,SSE,148,5.0,10.0,56,0.00,,CLR,0.00,VWS V14.01,2013-04-24 21:00:00,
2013-04-24 17:05:00,72.1,56.0,30.01,SSE,156,2.0,6.0,57,0.00,,CLR,0.00,VWS V14.01,2013-04-24 21:05:00,
2013-04-24 17:10:00,72.0,55.5,30.01,West,274,1.0,5.0,56,0.00,,CLR,0.00,VWS V14.01,2013-04-24 21:10:00,
2013-04-24 17:15:00,72.1,56.0,30.01,East,98,3.0,5.0,57,0.00,,CLR,0.00,VWS V14.01,2013-04-24 21:15:00,
2013-04-24 17:20:00,71.7,56.2,30.00,SW,217,9.0,9.0,58,0.00,,CLR,0.00,VWS V14.01,2013-04-24 21:20:00,
2013-04-24 17:25:00,71.4,55.9,30.00,SSW,212,5.0,7.0,58,0.00,,CLR,0.00,VWS V14.01,2013-04-24 21:25:00,
2013-04-24 17:30:00,71.2,55.7,30.00,South,170,4.0,6.0,58,0.00,,CLR,0.00,VWS V14.01,2013-04-24 21:30:00,
2013-04-24 17:35:00,71.0,55.5,30.00,WSW,238,4.0,6.0,58,0.00,,CLR,0.00,VWS V14.01,2013-04-24 21:35:00,
2013-04-24 17:40:00,71.0,56.0,30.00,SSW,194,3.0,5.0,59,0.00,,CLR,0.00,VWS V14.01,2013-04-24 21:40:00,
2013-04-24 17:45:00,71.0,55.5,30.01,SSW,200,4.0,6.0,58,0.00,,CLR,0.00,VWS V14.01,2013-04-24 21:45:00,
2013-04-24 17:50:00,71.1,55.6,30.01,SE,139,3.0,5.0,58,0.00,,CLR,0.00,VWS V14.01,2013-04-24 21:50:00,
2013-04-24 17:55:00,71.1,56.1,30.02,SSE,162,2.0,3.0,59,0.00,,CLR,0.00,VWS V14.01,2013-04-24 21:55:00,
2013-04-24 18:00:00,71.0,56.0,30.02,SW,218,2.0,2.0,59,0.00,,SCT090,0.00,VWS V14.01,2013-04-24 22:00:00,
2013-04-24 18:05:00,70.9,55.9,30.02,South,186,1.0,2.0,59,0.00,,SCT090,0.00,VWS V14.01,2013-04-24 22:05:00,
2013-04-24 18:10:00,70.8,55.8,30.02,WSW,245,2.0,2.0,59,0.00,,SCT090,0.00,VWS V14.01,2013-04-24 22:10:00,
2013-04-24 18:15:00,70.7,55.7,30.02,SSW,200,1.0,2.0,59,0.00,,SCT090,0.00,VWS V14.01,2013-04-24 22:15:00,
2013-04-24 18:20:00,70.7,55.7,30.02,South,183,0.0,1.0,59,0.00,,SCT090,0.00,VWS V14.01,2013-04-24 22:20:00,
2013-04-24 18:25:00,70.7,55.7,30.02,South,177,2.0,3.0,59,0.00,,SCT090,0.00,VWS V14.01,2013-04-24 22:25:00,
2013-04-24 18:30:00,70.5,55.5,30.02,SSE,160,4.0,4.0,59,0.00,,SCT090,0.00,VWS V14.01,2013-04-24 22:30:00,
2013-04-24 18:35:00,70.3,55.3,30.02,SW,219,1.0,2.0,59,0.00,,SCT090,0.00,VWS V14.01,2013-04-24 22:35:00,
2013-04-24 18:40:00,70.2,55.7,30.02,SW,219,3.0,4.0,60,0.00,,SCT090,0.00,VWS V14.01,2013-04-24 22:40:00,
2013-04-24 18:45:00,69.7,55.7,30.02,SSE,149,1.0,5.0,61,0.00,,SCT090,0.00,VWS V14.01,2013-04-24 22:45:00,
2013-04-24 18:50:00,69.6,55.6,30.01,SSW,210,2.0,3.0,61,0.00,,SCT090,0.00,VWS V14.01,2013-04-24 22:50:00,
2013-04-24 18:55:00,69.6,55.1,30.01,SW,227,3.0,4.0,60,0.00,,SCT090,0.00,VWS V14.01,2013-04-24 22:55:00,
2013-04-24 19:00:00,69.7,55.7,30.01,SSE,163,4.0,6.0,61,0.00,,SCT100,0.00,VWS V14.01,2013-04-24 23:00:00,
2013-04-24 19:05:00,69.8,55.3,30.01,SSW,208,3.0,6.0,60,0.00,,SCT100,0.00,VWS V14.01,2013-04-24 23:05:00,
2013-04-24 19:10:00,69.9,55.4,30.01,SSW,207,2.0,3.0,60,0.00,,SCT100,0.00,VWS V14.01,2013-04-24 23:10:00,
2013-04-24 19:15:00,69.9,55.4,30.02,WSW,246,2.0,6.0,60,0.00,,SCT100,0.00,VWS V14.01,2013-04-24 23:15:00,
2013-04-24 19:20:00,70.0,55.5,30.02,SSE,162,1.0,3.0,60,0.00,,SCT100,0.00,VWS V14.01,2013-04-24 23:20:00,
2013-04-24 19:25:00,69.9,55.8,30.02,SSE,164,1.0,2.0,61,0.00,,SCT100,0.00,VWS V14.01,2013-04-24 23:25:00,
2013-04-24 19:30:00,69.7,55.7,30.02,South,169,3.0,6.0,61,0.00,,SCT100,0.00,VWS V14.01,2013-04-24 23:30:00,
2013-04-24 19:35:00,69.6,55.6,30.03,WSW,258,1.0,2.0,61,0.00,,SCT100,0.00,VWS V14.01,2013-04-24 23:35:00,
2013-04-24 19:40:00,69.6,55.6,30.02,SSE,155,4.0,5.0,61,0.00,,SCT100,0.00,VWS V14.01,2013-04-24 23:40:00,
2013-04-24 19:45:00,69.5,55.5,30.02,SSW,207,0.0,1.0,61,0.00,,SCT100,0.00,VWS V14.01,2013-04-24 23:45:00,
2013-04-24 19:50:00,69.3,55.3,30.03,South,180,5.0,5.0,61,0.00,,SCT100,0.00,VWS V14.01,2013-04-24 23:50:00,
2013-04-24 19:55:00,69.3,55.3,30.03,ESE,117,2.0,2.0,61,0.00,,SCT100,0.00,VWS V14.01,2013-04-24 23:55:00,
2013-04-24 20:00:00,69.2,55.2,30.03,SSW,205,0.0,1.0,61,0.00,,OVC080,0.00,VWS V14.01,2013-04-25 00:00:00,
2013-04-24 20:05:00,69.1,55.5,30.03,SSE,155,0.0,0.0,62,0.00,,OVC080,0.00,VWS V14.01,2013-04-25 00:05:00,
2013-04-24 20:10:00,68.7,55.2,30.02,South,180,2.0,5.0,62,0.00,,OVC080,0.00,VWS V14.01,2013-04-25 00:10:00,
2013-04-24 20:15:00,68.4,54.9,30.02,SSE,160,2.0,3.0,62,0.00,,OVC080,0.00,VWS V14.01,2013-04-25 00:15:00,
2013-04-24 20:20:00,68.2,54.7,30.02,ESE,102,2.0,2.0,62,0.00,,OVC080,0.00,VWS V14.01,2013-04-25 00:20:00,
2013-04-24 20:25:00,68.1,55.0,30.01,SSE,159,3.0,4.0,63,0.00,,OVC080,0.00,VWS V14.01,2013-04-25 00:25:00,
2013-04-24 20:30:00,68.0,54.5,30.01,SSE,168,2.0,5.0,62,0.00,,OVC080,0.00,VWS V14.01,2013-04-25 00:30:00,
2013-04-24 20:35:00,67.9,54.4,30.01,South,186,2.0,2.0,62,0.00,,OVC080,0.00,VWS V14.01,2013-04-25 00:35:00,
2013-04-24 20:40:00,67.9,54.4,30.02,SSE,154,2.0,2.0,62,0.00,,OVC080,0.00,VWS V14.01,2013-04-25 00:40:00,
2013-04-24 20:45:00,67.7,54.2,30.02,SSW,193,1.0,2.0,62,0.00,,OVC080,0.00,VWS V14.01,2013-04-25 00:45:00,
2013-04-24 20:50:00,67.5,54.0,30.02,SSE,148,2.0,2.0,62,0.00,,OVC080,0.00,VWS V14.01,2013-04-25 00:50:00,
2013-04-24 20:55:00,67.2,54.2,30.02,SSE,151,3.0,3.0,63,0.00,,OVC080,0.00,VWS V14.01,2013-04-25 00:55:00,
2013-04-24 21:00:00,67.0,54.0,30.02,South,176,1.0,4.0,63,0.00,,CLR,0.00,VWS V14.01,2013-04-25 01:00:00,
2013-04-24 21:05:00,66.9,53.9,30.02,SSW,200,2.0,3.0,63,0.00,,CLR,0.00,VWS V14.01,2013-04-25 01:05:00,
2013-04-24 21:10:00,66.7,53.7,30.02,WSW,249,2.0,2.0,63,0.00,,CLR,0.00,VWS V14.01,2013-04-25 01:10:00,
2013-04-24 21:15:00,66.5,53.5,30.02,SSE,164,1.0,1.0,63,0.00,,CLR,0.00,VWS V14.01,2013-04-25 01:15:00,
2013-04-24 21:20:00,66.2,53.2,30.02,SSW,205,0.0,0.0,63,0.00,,CLR,0.00,VWS V14.01,2013-04-25 01:20:00,
2013-04-24 21:25:00,65.9,53.0,30.03,SSE,149,0.0,0.0,63,0.00,,CLR,0.00,VWS V14.01,2013-04-25 01:25:00,
2013-04-24 21:30:00,65.4,52.5,30.03,SW,222,2.0,2.0,63,0.00,,CLR,0.00,VWS V14.01,2013-04-25 01:30:00,
2013-04-24 21:35:00,65.2,52.3,30.03,SSW,205,1.0,2.0,63,0.00,,CLR,0.00,VWS V14.01,2013-04-25 01:35:00,
2013-04-24 21:40:00,65.0,52.1,30.04,SSE,162,0.0,1.0,63,0.00,,CLR,0.00,VWS V14.01,2013-04-25 01:40:00,
2013-04-24 21:45:00,64.7,51.8,30.04,ESE,114,0.0,1.0,63,0.00,,CLR,0.00,VWS V14.01,2013-04-25 01:45:00,
2013-04-24 21:50:00,64.3,51.5,30.04,SE,125,0.0,1.0,63,0.00,,CLR,0.00,VWS V14.01,2013-04-25 01:50:00,
2013-04-24 21:55:00,64.0,51.2,30.04,SE,127,0.0,0.0,63,0.00,,CLR,0.00,VWS V14.01,2013-04-25 01:55:00,
2013-04-24 22:00:00,63.6,50.4,30.04,SE,126,1.0,1.0,62,0.00,,SCT095,0.00,VWS V14.01,2013-04-25 02:00:00,
2013-04-24 22:05:00,63.0,49.4,30.04,SE,125,0.0,0.0,61,0.00,,SCT095,0.00,VWS V14.01,2013-04-25 02:05:00,
2013-04-24 22:10:00,62.3,48.2,30.05,SE,125,0.0,0.0,60,0.00,,SCT095,0.00,VWS V14.01,2013-04-25 02:10:00,
2013-04-24 22:15:00,61.6,47.2,30.05,SE,125,0.0,0.0,59,0.00,,SCT095,0.00,VWS V14.01,2013-04-25 02:15:00,
2013-04-24 22:20:00,60.8,46.0,30.05,SE,125,0.0,0.0,58,0.00,,SCT095,0.00,VWS V14.01,2013-04-25 02:20:00,
2013-04-24 22:25:00,60.2,44.9,30.05,SE,125,0.0,0.0,57,0.00,,SCT095,0.00,VWS V14.01,2013-04-25 02:25:00,
2013-04-24 22:30:00,59.7,44.0,30.05,SE,125,0.0,0.0,56,0.00,,SCT095,0.00,VWS V14.01,2013-04-25 02:30:00,
2013-04-24 22:35:00,59.3,42.7,30.05,SE,126,0.0,0.0,54,0.00,,SCT095,0.00,VWS V14.01,2013-04-25 02:35:00,
2013-04-24 22:41:00,58.8,41.7,30.06,SE,125,0.0,0.0,53,0.00,,SCT095,0.00,VWS V14.01,2013-04-25 02:41:00,
2013-04-24 22:46:00,58.3,40.8,30.06,SE,125,0.0,0.0,52,0.00,,SCT095,0.00,VWS V14.01,2013-04-25 02:46:00,
2013-04-24 22:51:00,58.0,39.5,30.06,SE,125,0.0,0.0,50,0.00,,SCT095,0.00,VWS V14.01,2013-04-25 02:51:00,
2013-04-24 22:56:00,57.8,38.8,30.05,SE,125,0.0,0.0,49,0.00,,SCT095,0.00,VWS V14.01,2013-04-25 02:56:00,
2013-04-24 23:01:00,57.6,38.1,30.05,SE,125,0.0,0.0,48,0.00,,SCT095,0.00,VWS V14.01,2013-04-25 03:01:00,
2013-04-24 23:06:00,57.5,38.0,30.05,SE,125,0.0,0.0,48,0.00,,SCT095,0.00,VWS V14.01,2013-04-25 03:06:00,
2013-04-24 23:11:00,57.4,37.3,30.05,SE,125,0.0,0.0,47,0.00,,SCT095,0.00,VWS V14.01,2013-04-25 03:11:00,
2013-04-24 23:16:00,57.3,36.7,30.05,South,180,0.0,0.0,46,0.00,,SCT095,0.00,VWS V14.01,2013-04-25 03:16:00,
2013-04-24 23:21:00,57.2,36.6,30.06,South,180,0.0,0.0,46,0.00,,SCT095,0.00,VWS V14.01,2013-04-25 03:21:00,
2013-04-24 23:26:00,57.2,36.1,30.05,SW,215,0.0,2.0,45,0.00,,SCT095,0.00,VWS V14.01,2013-04-25 03:26:00,
2013-04-24 23:31:00,57.7,35.4,30.06,South,173,0.0,0.0,43,0.00,,SCT095,0.00,VWS V14.01,2013-04-25 03:31:00,
2013-04-24 23:36:00,58.0,35.1,30.06,SSE,147,0.0,0.0,42,0.00,,SCT095,0.00,VWS V14.01,2013-04-25 03:36:00,
2013-04-24 23:41:00,58.2,35.2,30.06,SE,146,0.0,0.0,42,0.00,,SCT095,0.00,VWS V14.01,2013-04-25 03:41:00,
2013-04-24 23:46:00,58.3,35.3,30.07,SE,146,0.0,0.0,42,0.00,,SCT095,0.00,VWS V14.01,2013-04-25 03:46:00,
2013-04-24 23:51:00,58.3,34.7,30.07,SE,146,0.0,0.0,41,0.00,,SCT095,0.00,VWS V14.01,2013-04-25 03:51:00,
2013-04-24 23:56:00,58.3,34.7,30.07,SSE,147,0.0,0.0,41,0.00,,SCT095,0.00,VWS V14.01,2013-04-25 03:56:00,